Voltar ao catálogo

STARLINK-34937

AtivoComunicaçõesVLEO
NORAD 66192·PAYLOAD·🇺🇸 United States

Lançado Oct 26, 2025 de Cape Canaveral Space Force Station

Loading…

Próximas Passagens (próximas 24 horas)

TLE

AtualizadoSource: CelesTrak SupGP

Época: Sep 14, 2026, 21:09 UTC

1 66192C 25243R   26257.88173611 -.00039931  00000+0 -11806-2 0  2578
2 66192  53.1582  83.8178 0001248  83.4280  53.1789 15.34389267    17

Acompanhe STARLINK-34937 em tempo real com AllMySat

Download on the App Store